Daily Data: Northwest Mesa

   
10/22/17
Time         Wind Dir   Wind Spd  Wind Gust   Humidity       Temp  Dew Point   Barom SL  DailyRain   HourRain   RainRate
                            mph        mph          %         F         F         in         in         in      in/hr
12:00am           289          0          0         50       62.9       44.0      30.01       0.00       0.00      0.000
12:05am           289          0          0         50       62.7       43.8      30.01       0.00       0.00      0.000
12:10am           289          0          0         49       62.6       43.2      30.01       0.00       0.00      0.000
12:15am           289          0          0         48       62.6       42.7      30.02       0.00       0.00      0.000
12:20am           288          0          0         48       62.6       42.7      30.02       0.00       0.00      0.000
12:25am           285          0          0         47       62.4       41.9      30.02       0.00       0.00      0.000
12:30am           288          0          0         47       62.4       41.9      30.02       0.00       0.00      0.000
12:35am           288          0          0         47       62.6       42.1      30.02       0.00       0.00      0.000
12:40am           287          0          0         48       62.6       42.7      30.02       0.00       0.00      0.000
12:45am           287          0          0         49       62.6       43.2      30.02       0.00       0.00      0.000
12:50am           285          0          0         49       62.4       43.0      30.02       0.00       0.00      0.000
12:55am           285          0          0         49       62.1       42.7      30.02       0.00       0.00      0.000
1:00am            285          0          0         50       62.0       43.2      30.02       0.00       0.00      0.000
1:05am            285          0          0         50       62.0       43.2      30.02       0.00       0.00      0.000
1:10am            285          0          0         50       61.8       43.0      30.02       0.00       0.00      0.000
1:15am            284          0          1         50       61.8       43.0      30.03       0.00       0.00      0.000
1:20am            284          0          1         50       61.6       42.8      30.03       0.00       0.00      0.000
1:25am            284          0          0         50       61.6       42.8      30.03       0.00       0.00      0.000
1:30am            284          0          0         51       61.8       43.5      30.03       0.00       0.00      0.000
1:35am            285          0          0         50       61.6       42.8      30.03       0.00       0.00      0.000
1:40am            284          0          0         48       61.5       41.6      30.03       0.00       0.00      0.000
1:45am            285          0          1         47       61.5       41.1      30.03       0.00       0.00      0.000
1:50am            285          0          1         47       61.6       41.2      30.03       0.00       0.00      0.000
1:55am            285          0          0         47       61.6       41.2      30.03       0.00       0.00      0.000
2:00am            284          0          0         48       61.6       41.7      30.03       0.00       0.00      0.000
2:05am            285          0          0         49       61.5       42.2      30.03       0.00       0.00      0.000
2:10am            285          0          0         49       61.2       41.9      30.03       0.00       0.00      0.000
2:15am            285          0          0         49       61.0       41.7      30.03       0.00       0.00      0.000
2:20am            285          0          0         50       60.9       42.2      30.03       0.00       0.00      0.000
2:25am            285          0          0         51       60.7       42.5      30.03       0.00       0.00      0.000
2:30am            285          0          0         52       60.5       42.8      30.03       0.00       0.00      0.000
2:35am            285          0          0         52       60.2       42.5      30.03       0.00       0.00      0.000
2:40am            285          0          0         52       60.1       42.4      30.03       0.00       0.00      0.000
2:45am            285          0          0         53       59.8       42.7      30.03       0.00       0.00      0.000
2:50am            284          0          1         52       59.5       41.9      30.03       0.00       0.00      0.000
2:55am            285          0          1         50       59.5       40.9      30.03       0.00       0.00      0.000
3:00am            287          1          2         46       59.6       38.8      30.03       0.00       0.00      0.000
3:05am            287          1          2         42       59.9       36.8      30.03       0.00       0.00      0.000
3:10am              4          1          3         38       60.5       34.8      30.03       0.00       0.00      0.000
3:15am             13          2          3         35       61.3       33.4      30.03       0.00       0.00      0.000
3:20am             11          0          3         34       62.0       33.3      30.03       0.00       0.00      0.000
3:25am             11          0          1         32       62.3       32.1      30.03       0.00       0.00      0.000
3:30am             11          2          2         31       62.4       31.4      30.04       0.00       0.00      0.000
3:35am             11          0          2         34       62.4       33.7      30.04       0.00       0.00      0.000
3:40am             11          0          2         36       62.1       34.9      30.04       0.00       0.00      0.000
3:45am             13          0          2         38       61.6       35.8      30.04       0.00       0.00      0.000
3:50am             11          0          1         38       61.3       35.5      30.04       0.00       0.00      0.000
3:55am             11          0          0         39       61.0       35.9      30.04       0.00       0.00      0.000
4:00am             11          0          0         40       60.4       36.0      30.05       0.00       0.00      0.000
4:05am             11          0          0         40       60.1       35.7      30.05       0.00       0.00      0.000
4:10am             11          0          0         41       59.9       36.2      30.05       0.00       0.00      0.000
4:15am             11          0          0         42       59.6       36.5      30.05       0.00       0.00      0.000
4:20am             11          0          3         44       59.2       37.3      30.05       0.00       0.00      0.000
4:25am             10          0          0         43       58.7       36.3      30.05       0.00       0.00      0.000
4:30am             11          0          0         42       58.6       35.6      30.05       0.00       0.00      0.000
4:35am             11          1          1         42       58.4       35.4      30.05       0.00       0.00      0.000
4:40am             11          0          2         43       58.1       35.7      30.05       0.00       0.00      0.000
4:45am             11          0          1         43       58.0       35.7      30.06       0.00       0.00      0.000
4:50am              7          0          0         44       57.8       36.0      30.06       0.00       0.00      0.000
4:55am             11          0          1         44       57.6       35.9      30.06       0.00       0.00      0.000